Content
SEND FEEDBACK

Daily
Averages
Monthly
Summary
United States of America

MALDEN, MISSOURI


Home > North America > United States > Missouri
Elevation: 89 meters     Latitude: 36 36N     Longitude: 089 59W

WEATHER
 
SELECT A DAY
Number of Records: 207,697;   Date Range: 1/1/95 - 7/26/14
 
SHARE

PRINT THIS DATA

[ ← Previous Day ]
WEATHER ALMANAC - 25 OCTOBER, 2013
[ Next Day → ]
[ °F ]   °C
Weather ElementAverageHighLow
Temperature5.3 °C12.2 °C (2:53 pm)-1.1 °C (6:53 am)
Dewpoint-1.8 °C0.6 °C (9:53 am)-5 °C (4:53 pm)
Humidity64.8 %86 % (10:53 pm)31 % (3:53 pm)
Barometer1031.2 hPa1034.9 hPa (9:53 am)1026.1 hPa (11:53 pm)
Wind Speed2.6 km/h11.1 km/h (10:53 am)
Weather ElementAverage
Visibility15.8 km
Wind DirectionNNE (20.4 °)

Weather ElementTotal
Precipitation---
Heating Degree Days12.8 (Base 18.3)
Averaged from 23 records on 25 October, 2013
WEATHER CONDITIONS BREAKOUT
WIND DIRECTION BREAKOUT
WEATHER BY HOUR - 25 OCTOBER, 2013
[ °F ]   °C
Local TimeTemperatureDewpointHumidityBarometerVisibilityWind DirectionWind SpeedGust SpeedPrecipitationEventsConditions
1:53 AM1.1 °C-1.7 °C82 %1031.2 hPa16.1 kmCalmClear
2:53 AM0.6 °C-1.7 °C85 %1031.5 hPa16.1 kmCalmClear
3:53 AM0.6 °C-1.7 °C85 %1032.2 hPa16.1 kmCalmClear
4:53 AM0 °C-2.2 °C85 %1032.5 hPa16.1 kmCalmClear
5:53 AM0 °C-2.8 °C82 %1033.2 hPa16.1 kmCalmClear
6:53 AM-1.1 °C-3.3 °C85 %1033.9 hPa16.1 kmCalmClear
7:53 AM0.6 °C-2.2 °C82 %1034.2 hPa16.1 kmCalmClear
8:53 AM3.3 °C-0.6 °C76 %1034.5 hPa16.1 kmCalmClear
9:53 AM6.1 °C0.6 °C68 %1034.9 hPa16.1 kmCalmClear
10:53 AM8.9 °C-1.7 °C48 %1034.2 hPa16.1 kmNE (50°)11.1 km/hClear
11:53 AM10 °C-3.9 °C38 %1033.9 hPa16.1 kmNNE (20°)11.1 km/hClear
12:53 PM10.6 °C-2.8 °C39 %1032.8 hPa16.1 kmVariable7.4 km/hClear
1:53 PM11.1 °C-3.9 °C35 %1031.8 hPa16.1 kmCalmClear
2:53 PM12.2 °C-3.9 °C33 %1031.2 hPa16.1 kmNE (40°)11.1 km/hClear
3:53 PM12.2 °C-4.4 °C31 %1030.1 hPa16.1 kmEast (80°)5.6 km/hClear
4:53 PM11.7 °C-5 °C31 %1029.5 hPa16.1 kmESE (110°)5.6 km/hClear
5:53 PM10 °C-2.8 °C41 %1029.1 hPa12.9 kmSouth (170°)7.4 km/hClear
6:53 PM5.6 °C0.6 °C70 %1028.8 hPa16.1 kmCalmClear
7:53 PM5.6 °C0 °C67 %1028.8 hPa16.1 kmCalmClear
8:53 PM4.4 °C0.6 °C77 %1028.1 hPa16.1 kmCalmClear
9:53 PM3.9 °C0.6 °C79 %1028.1 hPa14.5 kmCalmClear
10:53 PM2.8 °C0.6 °C86 %1027.4 hPa14.5 kmCalmClear
11:53 PM2.8 °C0.6 °C86 %1026.1 hPa16.1 kmCalmClear
Hourly data recorded from KPOF, located 0 kilometers away from Malden, Missouri







STORIES FROM OUR PARTNERS